Location: Henham
(51.9333°N, 0.2500°E)
Time: 20:58:46
(UTC+00:00)

STARLINK-49 - Pass Details

Date: 23 October 2019
Orbit: 549 x 551 km, 53.0° (Epoch: 15 November)

Event Time Altitude Azimuth Distance (km) Brightness Sun altitude
Rises 19:21:56 0° 287° (WNW) 2,721 8.6 -24.1°
Reaches altitude 10° 19:24:10 10° 284° (WNW) 1,826 7.3 -24.5°
Enters shadow 19:27:45 59° 248° (WSW) 639 4.0 -25.0°
